Location: Cutler
(25.6150°N, 80.3110°W)
Time: 12:23:27
(UTC-04:00)

OTV 5 (USA 277) - Visible Passes

Search period start: 18 July 2018 00:00
Search period end: 28 July 2018 00:00
Orbit: 312 x 321 km, 54.5° (Epoch: 05 July)

Date Brightness Start Highest point End Pass type
(mag) Time Alt. Az. Time Alt. Az. Time Alt. Az.
23 Jul ? 06:12:32 10° S 06:14:52 26° SE 06:17:12 10° ENE visible
25 Jul ? 05:09:11 13° SE 05:09:35 14° ESE 05:11:04 10° E visible
26 Jul ? 05:23:35 52° SSE 05:23:53 57° SE 05:26:32 10° NE visible
27 Jul ? 05:37:54 27° WNW 05:38:19 28° NW 05:40:43 10° NNE visible
